Location: Bremen
(53.0793°N, 8.8017°E)
Time: 16:50:39
(UTC+01:00)

Transit 2A - Pass Details

Date: 03 December 2022
Orbit: 594 x 962 km, 66.7° (Epoch: 31 January)

Event Time Altitude Azimuth Distance (km) Brightness Sun altitude
Rises 17:35:58 0° 316° (NW) 3,186 9.5 -12.0°
Reaches altitude 10° 17:38:23 10° 308° (NW) 2,317 8.9 -12.3°
Maximum altitude 17:43:15 37° 242° (WSW) 1,254 7.8 -13.0°
Drops below altitude 10° 17:48:34 10° 177° (S) 2,529 8.9 -13.8°
Sets 17:51:19 0° 170° (S) 3,515 9.5 -14.2°
